Weather History for Bellaire, MI

Change the Weather History Date:

Wednesday, July 3, 2013

  Actual Average (KTVC) Record (KTVC)
Temperature  
Mean Temperature 66 °F 68 °F  
Max Temperature 79 °F 80 °F 98 °F (1966)
Min Temperature 53 °F 57 °F 42 °F (1986)
Degree Days  
Heating Degree Days 0 1  
Month to date heating degree days 4  
Since 1 June heating degree days 116  
Since 1 July heating degree days 4  
Cooling Degree Days 1 5  
Month to date cooling degree days 15  
Year to date cooling degree days 116  
Since 1 June cooling degree days 96  
Growing Degree Days 16 (Base 50)    
Moisture  
Dew Point 54 °F    
Average Humidity 65    
Maximum Humidity 93    
Minimum Humidity 40    
Precipitation  
Precipitation 0.00 in 0.09 in 1.37 in (1951)
Month to date precipitation 0.28  
Year to date precipitation 14.99  
Sea Level Pressure  
Sea Level Pressure 30.08 in    
Wind  
Wind Speed 1 mph (ENE)    
Max Wind Speed 13 mph    
Max Gust Speed -    
Visibility 10 miles    
Events Rain    
T = Trace of Precipitation, MM = Missing Value Source: NWS Daily Summary

Daily Weather History Graph

Daily Weather History Graph

Search for Another Location

Airport:

Trip Planner

Search our weather history database for the weather conditions in past years. The results will help you decide how hot, cold, wet, or windy it might be!

Date:

Astronomy

Jul. 03, 2013 Rise Set
Actual Time 5:59 AM EDT 9:30 PM EDT
Civil Twilight 5:22 AM EDT 10:07 PM EDT
Nautical Twilight 4:33 AM EDT 10:56 PM EDT
Astronomical Twilight 3:29 AM EDT 11:59 PM EDT
Moon 2:42 AM EDT (7/3) 5:36 PM EDT (7/3)
Length of Visible Light 16h 45m
Length of Day
15h 31m
Waning Crescent, 18% of the Moon is Illuminated
Jul 3
Waning Crescent
Jul 8
New
Jul 15
First Quarter
Jul 22
Full
Jul 29
Last Quarter

Hourly Weather History & Observations

Time (EDT) Temp. Dew Point Humidity Pressure Visibility Wind Dir Wind Speed Gust Speed Precip Events Conditions
12:14 AM 62.4 °F 49.5 °F 63% 30.10 in 10.0 mi Calm Calm - N/A   Mostly Cloudy
12:34 AM 62.1 °F 49.6 °F 64% 30.10 in 10.0 mi Calm Calm - N/A   Scattered Clouds
12:54 AM 59.7 °F 52.3 °F 77% 30.10 in 10.0 mi North - - N/A   Clear
1:14 AM 60.1 °F 51.4 °F 73% 30.10 in 10.0 mi Calm Calm - N/A   Clear
1:35 AM 58.5 °F 50.9 °F 76% 30.10 in 10.0 mi North - - N/A   Scattered Clouds
1:54 AM 58.1 °F 50.5 °F 76% 30.10 in 10.0 mi North - - N/A   Mostly Cloudy
2:14 AM 57.4 °F 51.6 °F 81% 30.09 in 10.0 mi North - - N/A   Overcast
2:35 AM 57.7 °F 51.4 °F 79% 30.09 in 10.0 mi North - - N/A   Overcast
2:54 AM 59.0 °F 52.5 °F 79% 30.09 in 10.0 mi North - - N/A   Overcast
3:14 AM 58.6 °F 52.3 °F 80% 30.09 in 10.0 mi North - - N/A   Overcast
3:35 AM 59.0 °F 52.5 °F 79% 30.08 in 10.0 mi North - - N/A   Overcast
3:54 AM 59.0 °F 52.9 °F 80% 30.09 in 10.0 mi North - - N/A   Overcast
4:14 AM 58.6 °F 53.1 °F 82% 30.08 in 10.0 mi North - - N/A   Overcast
4:35 AM 58.8 °F 52.0 °F 78% 30.08 in 10.0 mi North - - N/A   Overcast
4:54 AM 57.2 °F 52.5 °F 84% 30.09 in 10.0 mi Calm Calm - N/A   Mostly Cloudy
5:15 AM 55.9 °F 51.6 °F 85% 30.09 in 10.0 mi North - - N/A   Mostly Cloudy
5:35 AM 55.6 °F 51.8 °F 87% 30.09 in 10.0 mi North - - N/A   Mostly Cloudy
5:54 AM 54.7 °F 51.4 °F 89% 30.10 in 10.0 mi Calm Calm - N/A   Scattered Clouds
6:15 AM 54.1 °F 51.1 °F 89% 30.10 in 10.0 mi North - - N/A   Scattered Clouds
6:34 AM 53.1 °F 51.1 °F 93% 30.10 in 10.0 mi Calm Calm - N/A   Scattered Clouds
6:54 AM 54.7 °F 51.1 °F 88% 30.11 in 10.0 mi Calm Calm - N/A   Scattered Clouds
7:15 AM 55.8 °F 52.0 °F 87% 30.12 in 10.0 mi Calm Calm - N/A   Clear
7:34 AM 57.7 °F 51.6 °F 80% 30.12 in 10.0 mi Calm Calm - N/A   Clear
7:54 AM 59.5 °F 52.0 °F 76% 30.12 in 7.0 mi Calm Calm - N/A   Mostly Cloudy
8:15 AM 61.9 °F 50.9 °F 67% 30.12 in 10.0 mi Calm Calm - N/A   Scattered Clouds
8:34 AM 63.7 °F 49.8 °F 61% 30.12 in 10.0 mi North - - N/A   Clear
8:55 AM 65.5 °F 50.0 °F 57% 30.12 in 10.0 mi NE 3.5 mph - N/A   Clear
9:15 AM 67.3 °F 50.5 °F 55% 30.12 in 10.0 mi North - - N/A   Clear
9:34 AM 69.8 °F 51.4 °F 52% 30.12 in 10.0 mi North - - N/A   Clear
9:55 AM 70.9 °F 51.6 °F 50% 30.12 in 10.0 mi North - - N/A   Clear
10:14 AM 72.5 °F 51.3 °F 47% 30.11 in 10.0 mi Calm Calm - N/A   Clear
10:35 AM 73.6 °F 50.7 °F 45% 30.11 in 10.0 mi North - - N/A   Clear
10:55 AM 73.6 °F 49.8 °F 43% 30.11 in 10.0 mi East 4.6 mph - N/A   Scattered Clouds
11:14 AM 74.7 °F 49.3 °F 41% 30.11 in 10.0 mi Calm Calm - N/A   Scattered Clouds
11:35 AM 75.0 °F 49.3 °F 40% 30.11 in 10.0 mi SSE 4.6 mph - N/A   Clear
11:55 AM 75.2 °F 50.0 °F 41% 30.10 in 10.0 mi Calm Calm - N/A   Scattered Clouds
12:14 PM 74.8 °F 50.9 °F 43% 30.10 in 10.0 mi Calm Calm - N/A   Mostly Cloudy
12:35 PM 74.5 °F 52.2 °F 46% 30.10 in 10.0 mi North - - N/A   Mostly Cloudy
12:55 PM 74.5 °F 52.7 °F 46% 30.09 in 10.0 mi North - - N/A   Scattered Clouds
1:14 PM 76.6 °F 53.4 °F 44% 30.09 in 10.0 mi South 4.6 mph - N/A   Mostly Cloudy
1:35 PM 76.8 °F 54.1 °F 45% 30.09 in 10.0 mi ESE 8.1 mph - N/A   Mostly Cloudy
1:54 PM 77.7 °F 54.5 °F 45% 30.08 in 10.0 mi East 4.6 mph - N/A   Mostly Cloudy
2:15 PM 77.2 °F 54.9 °F 46% 30.07 in 10.0 mi Calm Calm - N/A   Mostly Cloudy
2:34 PM 76.3 °F 56.8 °F 51% 30.08 in 10.0 mi SE 12.7 mph - N/A   Mostly Cloudy
2:55 PM 73.8 °F 57.7 °F 57% 30.07 in 10.0 mi SE 3.5 mph - N/A Rain Light Rain
3:14 PM 74.1 °F 58.3 °F 58% 30.07 in 10.0 mi Calm Calm - N/A   Overcast
3:35 PM 72.7 °F 64.0 °F 74% 30.06 in 10.0 mi Calm Calm - N/A Rain Light Rain
3:55 PM 73.8 °F 60.3 °F 63% 30.06 in 10.0 mi Calm Calm - N/A   Overcast
4:14 PM 74.7 °F 58.8 °F 58% 30.06 in 10.0 mi NW 5.8 mph - N/A   Mostly Cloudy
4:35 PM 76.1 °F 58.6 °F 55% 30.05 in 10.0 mi North 5.8 mph - N/A   Scattered Clouds
4:55 PM 77.2 °F 57.9 °F 51% 30.04 in 10.0 mi NNE 4.6 mph - N/A   Clear
5:14 PM 77.9 °F 57.9 °F 50% 30.04 in 10.0 mi North - - N/A   Clear
5:35 PM 79.2 °F 58.8 °F 50% 30.04 in 10.0 mi West 4.6 mph - N/A   Mostly Cloudy
5:55 PM 78.3 °F 58.1 °F 50% 30.04 in 10.0 mi NW 5.8 mph - N/A   Mostly Cloudy
6:14 PM 78.1 °F 57.9 °F 50% 30.04 in 10.0 mi WNW 3.5 mph - N/A   Mostly Cloudy
6:35 PM 76.1 °F 57.4 °F 52% 30.03 in 10.0 mi North - - N/A   Mostly Cloudy
6:55 PM 76.3 °F 57.0 °F 51% 30.03 in 10.0 mi North - - N/A   Mostly Cloudy
7:15 PM 76.3 °F 56.8 °F 51% 30.03 in 10.0 mi North - - N/A   Mostly Cloudy
7:35 PM 76.8 °F 57.0 °F 50% 30.03 in 10.0 mi North 3.5 mph - N/A   Scattered Clouds
7:55 PM 76.5 °F 57.0 °F 51% 30.03 in 10.0 mi North - - N/A   Clear
8:15 PM 75.6 °F 56.8 °F 52% 30.03 in 10.0 mi Calm Calm - N/A   Clear
8:35 PM 71.6 °F 59.7 °F 66% 30.03 in 10.0 mi Calm Calm - N/A   Scattered Clouds
8:54 PM 69.6 °F 59.9 °F 71% 30.02 in 10.0 mi Calm Calm - N/A   Clear
9:15 PM 68.5 °F 59.9 °F 74% 30.03 in 10.0 mi Calm Calm - N/A   Clear
9:35 PM 67.3 °F 60.1 °F 78% 30.03 in 10.0 mi Calm Calm - N/A   Clear
9:54 PM 66.7 °F 59.9 °F 79% 30.03 in 10.0 mi North - - N/A   Clear
10:15 PM 65.8 °F 59.2 °F 79% 30.04 in 10.0 mi North - - N/A   Clear
10:35 PM 64.8 °F 59.5 °F 83% 30.04 in 10.0 mi Calm Calm - N/A   Clear
10:55 PM 63.7 °F 59.4 °F 86% 30.05 in 10.0 mi North - - N/A   Scattered Clouds
11:15 PM 64.8 °F 59.7 °F 84% 30.04 in 10.0 mi North - - N/A   Mostly Cloudy
11:35 PM 64.4 °F 59.9 °F 85% 30.05 in 10.0 mi Calm Calm - N/A   Overcast
11:54 PM 65.3 °F 60.8 °F 85% 30.05 in 10.0 mi Calm Calm - N/A   Overcast